Location: Bydgoszcz
(53.1603°N, 18.1626°E)
Time: 10:45:23
(UTC+02:00)

ISS - Visible Passes

Search period start: 22 September 2018 00:00
Search period end: 02 October 2018 00:00
Orbit: 403 x 408 km, 51.6° (Epoch: 22 September)

Date Brightness Start Highest point End Pass type
(mag) Time Alt. Az. Time Alt. Az. Time Alt. Az.
22 Sep -1.3 20:28:30 10° S 20:28:51 11° S 20:28:51 11° S visible
23 Sep -1.6 19:38:10 10° SSE 19:39:02 11° SE 19:39:34 10° SE visible
23 Sep -1.2 21:11:46 10° SW 21:12:17 13° SW 21:12:17 13° SW visible
24 Sep -2.6 20:20:14 10° SSW 20:22:49 26° SSE 20:22:49 26° SSE visible
25 Sep -2.1 19:28:55 10° SSW 19:31:20 19° SSE 19:33:12 13° ESE visible
25 Sep -2.2 21:04:09 10° WSW 21:05:53 27° SW 21:05:53 27° SW visible
26 Sep -3.3 20:12:24 10° SW 20:15:31 41° SSE 20:16:08 36° SE visible
26 Sep -0.7 21:48:32 10° W 21:48:48 12° W 21:48:48 12° W visible
27 Sep -2.7 19:20:45 10° SW 19:23:41 30° SSE 19:26:17 12° E visible
27 Sep -2.8 20:56:38 10° WSW 20:58:57 41° WSW 20:58:57 41° WSW visible
28 Sep -3.7 20:04:44 10° WSW 20:08:00 56° SSE 20:09:02 36° ESE visible
28 Sep -0.9 21:41:05 10° W 21:41:42 14° W 21:41:42 14° W visible
29 Sep -3.3 19:12:54 10° SW 19:16:05 45° SSE 19:19:03 11° E visible
29 Sep -3.1 20:49:08 10° W 20:51:43 49° WSW 20:51:43 49° WSW visible
30 Sep -3.8 19:57:11 10° WSW 20:00:28 67° S 20:01:42 34° ESE visible
30 Sep -0.9 21:33:36 10° W 21:34:21 16° W 21:34:21 16° W visible
01 Oct -3.6 19:05:14 10° WSW 19:08:30 60° S 19:11:39 11° E visible
01 Oct -3.1 20:41:36 10° W 20:44:18 50° WSW 20:44:18 50° WSW visible
